Flag for U.S.A. Weather past 2 weeks in Topeka, Kansas, U.S.A.

29 °F


Feels Like: 20 °F
Forecast: 28 / 33 °F
Wind: 10 mph from North

Location: Philip Billard Municipal Airport

Current Time: Nov 27, 2015 at 10:50:47 PM

Latest Report: Nov 27, 2015 at 9:53 PM

Visibility: 10 mi

Pressure: 30.47 "Hg

Humidity: 89%

Dew point: 26 °F

Location of TopekaLocation

Historic Weather in Topeka — Graph


Topeka temperature yesterday

Maximum temperature yesterday: 65 °F (at 7:53 AM)
Minimum temperature yesterday: 32 °F (at 11:53 PM)
Average temperature yesterday: 46 °F

Past Weeks' High & Low Weather Summary

High70 °F (Nov 14, 12:53 PM)97% (Nov 16, 11:53 AM)30.51 "Hg (Nov 16, 11:53 AM)
Low27 °F (Nov 21, 7:53 PM)22% (Nov 14, 2:53 PM)29.32 "Hg (Nov 18, 2:53 AM)
Average47 °F65%30.04 "Hg
* Reported Nov 12 8:53 PM — Nov 27 8:53 PM, Topeka, Weather by CustomWeather, © 2015

Note: Actual official high and low records may vary slightly from our data, if they occured in-between our weather recording intervals... More about our weather records


Topeka weather history for previous 24 hours

Time TempWeatherWind HumidityBarometerVisibility
8:53 PM
Fri, Nov 27
29 °FOvercast.9 mph85%30.48 "Hg10 mi
7:53 PM28 °FOvercast.9 mph89%30.48 "Hg10 mi
7:03 PM28 °FLow clouds.10 mph89%30.46 "Hg8 mi
5:53 PM28 °FOvercast.10 mph85%30.49 "Hg10 mi
4:53 PM27 °FOvercast.18 mph89%30.47 "Hg10 mi
3:53 PM28 °FOvercast.18 mph85%30.47 "Hg10 mi
2:53 PM28 °FOvercast.12 mph85%30.48 "Hg10 mi
1:53 PM28 °FOvercast.15 mph85%30.45 "Hg10 mi
12:53 PM28 °FLight freezing rain. Overcast.12 mph89%30.49 "Hg7 mi
11:53 AM28 °FLight snow. Ice fog.15 mph85%30.51 "Hg4 mi
11:04 AM28 °FLight snow. Ice fog.16 mph85%30.49 "Hg2 mi
9:53 AM28 °FLight snow. Ice fog.13 mph89%30.49 "Hg6 mi
8:53 AM29 °FLight freezing rain. Overcast.12 mph85%30.47 "Hg10 mi
7:53 AM29 °FLight freezing rain. Overcast.18 mph85%30.45 "Hg10 mi
6:53 AM29 °FLight freezing rain. Overcast.15 mph89%30.46 "Hg7 mi
5:53 AM30 °FLight snow. Overcast.14 mph82%30.46 "Hg10 mi
4:53 AM30 °FOvercast.16 mph89%30.41 "Hg10 mi
3:53 AM30 °FOvercast.16 mph85%30.39 "Hg10 mi
2:53 AM31 °FOvercast.17 mph85%30.39 "Hg10 mi
1:53 AM31 °FOvercast.20 mph89%30.37 "Hg10 mi
12:53 AM32 °FOvercast.20 mph85%30.37 "Hg10 mi
11:53 PM
Thu, Nov 26
32 °FLight snow. Overcast.14 mph88%30.36 "Hg10 mi
10:53 PM33 °FLight rain. Overcast.13 mph88%30.32 "Hg10 mi
Weather by CustomWeather, © 2015

See weather overviewHow to use our weather pages